Home   Weather   Niš   Past weeks

Flag for Serbia Past Weather in Niš, Serbia — Yesterday and Last 2 Weeks

61 °F

Passing clouds.

Feels Like: 61 °F
Forecast: 50 / 65 °F
Wind: 5 mph from Southwest

Location: Nis Airport

Current Time: Oct 24, 2016 at 12:44:58 PM

Latest Report: Oct 24, 2016 at 12:00 PM

Visibility: N/A

Pressure: 30.30 "Hg

Humidity: 83%

Dew Point: 55 °F

Location of NišLocation

Past Weather in Niš — Graph


Niš Temperature Yesterday

Maximum temperature yesterday: 70 °F (at 1:30 PM)
Minimum temperature yesterday: 50 °F (at 1:30 AM)
Average temperature yesterday: 58 °F

High & Low Weather Summary for the Past Weeks

High72 °F (Oct 14, 3:00 PM)100% (Oct 10, 12:30 AM)30.45 "Hg (Oct 10, 12:30 AM)
Low37 °F (Oct 10, 12:30 AM)38% (Oct 14, 3:00 PM)29.71 "Hg (Oct 12, 4:00 AM)
Average51 °F78%30.12 "Hg
* Reported Oct 9 11:00 AM — Oct 24 11:30 AM, Niš, Weather by CustomWeather, © 2016

Note: Actual official high and low records may vary slightly from our data, if they occured in-between our weather recording intervals... More about our weather records


Niš Weather History for the Previous 24 Hours

Scroll right to see more
Time TempWeatherWind HumidityBarometerVisibility
11:30 AM
Mon, Oct 24
57 °FPassing clouds.5 mph100%30.33 "Hg5 mi
11:00 AM54 °FFog.3 mph100%30.33 "Hg2 mi
10:30 AM54 °FFog.3 mph94%30.33 "Hg1 mi
10:00 AM52 °FFog.2 mph94%30.30 "Hg0 mi
9:30 AM50 °FFog.2 mph100%30.30 "Hg0 mi
9:00 AM50 °FFog.2 mph100%30.30 "Hg0 mi
8:30 AM50 °FFog.1 mph100%30.30 "Hg0 mi
8:00 AM48 °FFog.No wind100%30.27 "Hg0 mi
7:30 AM46 °FFog.No wind100%30.27 "Hg0 mi
7:00 AM46 °FFog.2 mph100%30.27 "Hg0 mi
6:30 AM46 °FFog.2 mph100%30.24 "Hg0 mi
6:00 AM46 °FFog.3 mph93%30.24 "Hg0 mi
5:30 AM46 °FCool.2 mph100%30.24 "Hg4 mi
5:00 AM50 °FCool.No wind94%30.24 "Hg4 mi
4:30 AM50 °FPassing clouds.1 mph94%30.24 "Hg4 mi
4:00 AM50 °FCool.1 mph94%30.24 "Hg5 mi
3:30 AM50 °FCool.1 mph94%30.24 "Hg5 mi
3:00 AM50 °FFog.1 mph94%30.24 "HgN/A
2:30 AM50 °FPassing clouds.2 mph94%30.21 "Hg5 mi
2:00 AM48 °FClear.No wind94%30.21 "Hg10 mi
1:30 AM50 °FClear.1 mph100%30.21 "Hg10 mi
1:00 AM50 °FClear.No wind94%30.21 "Hg10 mi
12:30 AM48 °FClear.3 mph94%30.21 "Hg10 mi
12:00 AM50 °FClear.3 mph94%30.21 "Hg10 mi
11:30 PM
Sun, Oct 23
50 °FClear.3 mph88%30.18 "Hg10 mi
11:00 PM54 °FClear.2 mph88%30.21 "Hg10 mi
10:30 PM54 °FClear.3 mph88%30.21 "Hg10 mi
10:00 PM54 °FClear.1 mph88%30.18 "Hg10 mi
9:30 PM55 °FPassing clouds.3 mph88%30.18 "HgN/A
9:00 PM55 °FClear.2 mph88%30.18 "Hg10 mi
8:30 PM57 °FClear.2 mph82%30.18 "Hg10 mi
8:00 PM59 °FClear.1 mph77%30.15 "Hg10 mi
7:30 PM61 °FPassing clouds.3 mph72%30.15 "HgN/A
7:00 PM61 °FClear.6 mph72%30.15 "Hg10 mi
6:30 PM63 °FClear.5 mph73%30.12 "Hg10 mi
6:00 PM64 °FPassing clouds.1 mph68%30.12 "HgN/A
5:30 PM64 °FPassing clouds.2 mph68%30.12 "HgN/A
5:00 PM66 °FScattered clouds.2 mph64%30.12 "HgN/A
4:30 PM68 °FScattered clouds.2 mph60%30.12 "HgN/A
4:00 PM68 °FPassing clouds.2 mph56%30.12 "HgN/A
3:30 PM70 °FPassing clouds.5 mph53%30.12 "HgN/A
3:00 PM68 °FPassing clouds.5 mph60%30.12 "HgN/A
2:30 PM68 °FPassing clouds.5 mph56%30.12 "HgN/A
2:00 PM70 °FPassing clouds.7 mph57%30.12 "HgN/A
1:30 PM70 °FPassing clouds.5 mph57%30.12 "HgN/A
1:00 PM68 °FPassing clouds.6 mph60%30.12 "HgN/A
12:30 PM68 °FPassing clouds.3 mph60%30.15 "HgN/A
12:00 PM64 °FPassing clouds.1 mph68%30.15 "HgN/A
Weather by CustomWeather, © 2016

See weather overviewHow to use our weather pages